Weather History for KGUC - March, 2013

Change the Weather History Date:

Monday, March 4, 2013

  Actual Average Record
Temperature  
Mean Temperature 29 °F -  
Max Temperature 41 °F 33 °F 50 °F (2009)
Min Temperature 15 °F 9 °F -11 °F (2002)
Degree Days  
Heating Degree Days 36    
Moisture  
Dew Point 23 °F    
Average Humidity 72    
Maximum Humidity 93    
Minimum Humidity 46    
Precipitation  
Precipitation 0.08 in - - ()
Sea Level Pressure  
Sea Level Pressure 29.95 in    
Wind  
Wind Speed 5 mph (WNW)    
Max Wind Speed 24 mph    
Max Gust Speed 32 mph    
Visibility 8 miles    
Events      
Averages and records for this station are not official NWS values.
T = Trace of Precipitation, MM = Missing Value Source: NWS Daily Summary

Daily Weather History Graph

Daily Weather History Graph

Search for Another Location

Airport or City:

Trip Planner

Search our weather history database for the weather conditions in past years. The results will help you decide how hot, cold, wet, or windy it might be!

Date:

Astronomy

Mar. 04, 2013 Rise Set
Actual Time 6:35 AM MST 6:04 PM MST
Civil Twilight 6:08 AM MST 6:30 PM MST
Nautical Twilight 5:37 AM MST 7:01 PM MST
Astronomical Twilight 5:07 AM MST 7:32 PM MST
Moon 12:44 AM MST (3/4) 10:51 AM MST (3/4)
Length of Visible Light 12h 22m
Length of Day
11h 29m
Waning Gibbous, 51% of the Moon is Illuminated
Mar 4
Waning Gibbous
Mar 4
Last Quarter
Mar 11
New
Mar 19
First Quarter
Mar 27
Full

Hourly Weather History & Observations

Time (MST) Temp. Windchill Dew Point Humidity Pressure Visibility Wind Dir Wind Speed Gust Speed Precip Events Conditions
12:15 AM 32.0 °F - 28.4 °F 87% 29.90 in 4.0 mi Calm Calm - N/A   Overcast
12:55 AM 32.0 °F - 28.4 °F 87% 29.90 in 2.5 mi Calm Calm - N/A   Overcast
1:15 AM 32.0 °F - 28.4 °F 87% 29.89 in 4.0 mi Calm Calm - N/A   Overcast
1:35 AM 32.0 °F - 28.4 °F 87% 29.89 in 8.0 mi Calm Calm - N/A   Overcast
1:55 AM 32.0 °F - 28.4 °F 87% 29.89 in 2.0 mi Calm Calm - N/A   Overcast
2:15 AM 32.0 °F - 28.4 °F 87% 29.88 in 3.0 mi Calm Calm - 0.02 in   Overcast
2:35 AM 30.2 °F - 28.4 °F 93% 29.87 in 5.0 mi Calm Calm - 0.02 in   Overcast
2:55 AM 30.2 °F - 28.4 °F 93% 29.87 in 3.0 mi Calm Calm - 0.02 in   Overcast
3:15 AM 32.0 °F - 28.4 °F 87% 29.86 in 3.0 mi Calm Calm - N/A   Overcast
3:35 AM 32.0 °F - 28.4 °F 87% 29.85 in 5.0 mi Calm Calm - N/A   Overcast
3:55 AM 32.0 °F - 28.4 °F 87% 29.86 in 3.0 mi Calm Calm - N/A   Overcast
4:15 AM 32.0 °F - 28.4 °F 87% 29.86 in 1.0 mi Calm Calm - 0.01 in   Overcast
4:55 AM 32.0 °F - 28.4 °F 87% 29.85 in 10.0 mi Calm Calm - 0.05 in   Overcast
5:15 AM 32.0 °F - 28.4 °F 87% 29.86 in 10.0 mi Calm Calm - N/A   Overcast
5:35 AM 32.0 °F - 28.4 °F 87% 29.85 in 5.0 mi Calm Calm - N/A   Overcast
5:55 AM 32.0 °F - 28.4 °F 87% 29.85 in 7.0 mi Calm Calm - N/A   Overcast
6:15 AM 32.0 °F - 28.4 °F 87% 29.85 in 1.0 mi Calm Calm - 0.01 in   Overcast
6:35 AM 32.0 °F - 28.4 °F 87% 29.85 in 2.0 mi Calm Calm - 0.01 in   Overcast
6:55 AM 32.0 °F - 28.4 °F 87% 29.85 in 4.0 mi Calm Calm - 0.01 in   Overcast
7:15 AM 32.0 °F - 28.4 °F 87% 29.85 in 2.5 mi Calm Calm - N/A   Overcast
7:35 AM 32.0 °F - 28.4 °F 87% 29.86 in 9.0 mi Calm Calm - N/A   Overcast
7:55 AM 33.8 °F - 30.2 °F 87% 29.87 in 9.0 mi Calm Calm - N/A   Overcast
8:15 AM 33.8 °F - 30.2 °F 87% 29.87 in 10.0 mi Calm Calm - N/A   Overcast
8:35 AM 33.8 °F - 30.2 °F 87% 29.88 in 10.0 mi Calm Calm - N/A   Overcast
8:55 AM 33.8 °F - 30.2 °F 87% 29.87 in 10.0 mi Calm Calm - N/A   Overcast
9:15 AM 33.8 °F 27.7 °F 30.2 °F 87% 29.87 in 10.0 mi WSW 6.9 mph - N/A   Overcast
9:35 AM 33.8 °F 27.0 °F 30.2 °F 87% 29.88 in 10.0 mi West 8.1 mph - N/A   Mostly Cloudy
10:15 AM 37.4 °F 28.2 °F 32.0 °F 81% 29.87 in 10.0 mi SW 16.1 mph 20.7 mph N/A   Partly Cloudy
10:35 AM 39.2 °F 31.2 °F 28.4 °F 65% 29.88 in 10.0 mi SW 13.8 mph 21.9 mph N/A   Partly Cloudy
10:55 AM 39.2 °F 31.6 °F 26.6 °F 61% 29.89 in 10.0 mi SW 12.7 mph 19.6 mph N/A   Mostly Cloudy
11:15 AM 35.6 °F 27.1 °F 24.8 °F 65% 29.89 in 10.0 mi WSW 12.7 mph - N/A   Overcast
11:55 AM 39.2 °F 31.6 °F 24.8 °F 56% 29.88 in 10.0 mi SSW 12.7 mph 17.3 mph N/A   Mostly Cloudy
12:15 PM 39.2 °F 30.5 °F 24.8 °F 56% 29.88 in 10.0 mi West 16.1 mph 24.2 mph N/A   Overcast
12:35 PM 41.0 °F 33.5 °F 26.6 °F 57% 29.89 in 10.0 mi West 13.8 mph 19.6 mph N/A   Overcast
12:55 PM 39.2 °F 35.0 °F 26.6 °F 61% 29.89 in 10.0 mi WSW 5.8 mph - N/A   Mostly Cloudy
1:15 PM 39.2 °F 30.8 °F 24.8 °F 56% 29.87 in 10.0 mi WSW 15.0 mph 19.6 mph N/A   Mostly Cloudy
1:35 PM 35.6 °F 26.6 °F 24.8 °F 65% 29.88 in 1.2 mi West 13.8 mph 23.0 mph N/A   Overcast
1:55 PM 35.6 °F 28.0 °F 28.4 °F 75% 29.86 in 10.0 mi WSW 10.4 mph 16.1 mph N/A   Mostly Cloudy
2:15 PM 37.4 °F 28.9 °F 26.6 °F 65% 29.86 in 10.0 mi West 13.8 mph - N/A   Mostly Cloudy
2:35 PM 39.2 °F 30.8 °F 26.6 °F 61% 29.86 in 10.0 mi West 15.0 mph 24.2 mph N/A   Mostly Cloudy
2:55 PM 37.4 °F 26.9 °F 24.8 °F 60% 29.87 in 10.0 mi WSW 20.7 mph 26.5 mph N/A   Overcast
3:15 PM 37.4 °F 27.5 °F 24.8 °F 60% 29.88 in 10.0 mi WSW 18.4 mph 32.2 mph N/A   Overcast
3:35 PM 35.6 °F 24.8 °F 24.8 °F 65% 29.90 in 3.0 mi West 19.6 mph 29.9 mph N/A   Mostly Cloudy
3:55 PM 33.8 °F 23.2 °F 24.8 °F 70% 29.92 in 5.0 mi North 17.3 mph 21.9 mph N/A   Mostly Cloudy
4:15 PM 33.8 °F 23.5 °F 23.0 °F 65% 29.95 in 4.0 mi NNW 16.1 mph 21.9 mph N/A   Overcast
4:35 PM - - - N/A% 29.96 in 1.2 mi NNW 24.2 mph 31.1 mph N/A   Overcast
4:55 PM - - - N/A% 29.99 in 3.0 mi NNW 20.7 mph 31.1 mph N/A   Overcast
5:15 PM - - - N/A% 30.01 in 10.0 mi NNW 18.4 mph 24.2 mph N/A   Scattered Clouds
5:35 PM - - - N/A% 30.03 in 10.0 mi NNW 17.3 mph 24.2 mph N/A   Partly Cloudy
5:55 PM - - - N/A% 30.05 in 10.0 mi NNW 16.1 mph 20.7 mph N/A   Clear
6:15 PM 28.4 °F 17.5 °F 15.8 °F 59% 30.07 in 10.0 mi NNW 13.8 mph 20.7 mph N/A   Clear
6:35 PM 26.6 °F 19.1 °F 14.0 °F 59% 30.10 in 10.0 mi NNW 6.9 mph - N/A   Clear
6:55 PM 28.4 °F 21.2 °F 12.2 °F 51% 30.11 in 10.0 mi NNW 6.9 mph - N/A   Clear
7:35 PM 24.8 °F 12.9 °F 8.6 °F 50% 30.13 in 10.0 mi NNW 13.8 mph - N/A   Clear
7:55 PM 24.8 °F - 6.8 °F 46% 30.15 in 10.0 mi Calm Calm - N/A   Clear
8:15 PM 24.8 °F 20.5 °F 8.6 °F 50% 30.16 in 10.0 mi North 3.5 mph - N/A   Clear
8:35 PM 23.0 °F 15.8 °F 8.6 °F 54% 30.17 in 10.0 mi NNW 5.8 mph - N/A   Clear
8:55 PM 21.2 °F 12.6 °F 6.8 °F 54% 30.18 in 10.0 mi North 6.9 mph - N/A   Clear
9:15 PM 21.2 °F 16.4 °F 3.2 °F 46% 30.20 in 10.0 mi North 3.5 mph - N/A   Clear
9:35 PM 19.4 °F 9.5 °F 6.8 °F 58% 30.20 in 10.0 mi NNW 8.1 mph - N/A   Clear
9:55 PM 19.4 °F 10.4 °F 6.8 °F 58% 30.22 in 10.0 mi North 6.9 mph - N/A   Clear
10:15 PM 17.6 °F 12.3 °F 3.2 °F 53% 30.22 in 10.0 mi North 3.5 mph - N/A   Clear
10:35 PM 17.6 °F 10.7 °F 3.2 °F 53% 30.22 in 10.0 mi North 4.6 mph - N/A   Clear
10:55 PM 17.6 °F 12.3 °F 5.0 °F 58% 30.23 in 10.0 mi North 3.5 mph - N/A   Clear
11:15 PM 15.8 °F 8.6 °F 3.2 °F 58% 30.23 in 10.0 mi NNW 4.6 mph - N/A   Clear